Regional Weather Roundup
Issued by NWS

Home | Current Version | Previous Version | Graphics & Text | Print | Product List | Glossary On
Versions: 1 2 3 4 5 6 7 8 9 10 11 12 13 14 15 16 17 18 19 20 21 22 23 24 25 26 27 28 29 30 31 32 33 34 35 36 37 38 39 40 41 42 43 44 45 46 47 48 49 50
000
ASUS43 KMKX 232321
RWRWI

WISCONSIN REGIONAL WEATHER ROUNDUP
NATIONAL WEATHER SERVICE MILWAUKEE/SULLIVAN WI
600 PM CDT FRI JUN 23 2017

NOTE: "FAIR" INDICATES FEW OR NO CLOUDS BELOW 12,000 FEET WITH NO
SIGNIFICANT WEATHER AND/OR OBSTRUCTIONS TO VISIBILITY.

WIZ001-002-006>008-014>016-023>028-240000-
NORTHWEST WISCONSIN

CITY           SKY/WX    TMP DP  RH WIND       PRES   REMARKS
SUPERIOR ARPT  NOT AVBL
ASHLAND        MOSUNNY   70  49  47 NW8       29.71S
HAYWARD        PTSUNNY   69  49  48 W9        29.75R
SIREN          LGT RAIN  60  55  82 NW9       29.80R
CUMBERLAND     PTSUNNY   64  48  55 NW14G20   29.78R
RICE LAKE      PTSUNNY   68  50  53 W8        29.79R
CHETEK         PTSUNNY   67  52  58 W8        29.77S
LADYSMITH      PTSUNNY   68  50  53 W9G21     29.77R
EAU CLAIRE     PTSUNNY   70  49  47 NW15      29.77R
MENOMONIE      CLOUDY    70  53  54 W13G18    29.80R
NEW RICHMOND   PTSUNNY   68  53  58 W14       29.82R
OSCEOLA        CLOUDY    68  51  54 NW15      29.84R
$$

WIZ003>005-009-010-017-018-240000-
NORTH CENTRAL WISCONSIN

CITY           SKY/WX    TMP DP  RH WIND       PRES   REMARKS
MANITOWISH WTR CLOUDY    64  48  57 N7        29.72S
ARBOR VITAE    PTSUNNY   65  47  51 NW8G22    29.72R
WOODRUFF       PTSUNNY   65  47  51 NW8G22    29.72R
RHINELANDER    CLOUDY    65  49  56 NW8G16    29.73R
EAGLE RIVER    PTSUNNY   65  45  48 NW13G20   29.72R
LAND O LAKES   PTSUNNY   65  45  48 NW12G20   29.73R
PHILLIPS       MOSUNNY   66  49  53 NW6G16    29.74R
TOMAHAWK       NOT AVBL
MEDFORD        CLOUDY    66  50  55 W12G18    29.75R
MERRILL        CLOUDY    67  50  53 W13       29.74R
$$

WIZ029-030-035-036-043>047-240000-
CENTRAL WISCONSIN

CITY           SKY/WX    TMP DP  RH WIND       PRES   REMARKS
WAUSAU         CLOUDY    68  49  50 NW15      29.72R
MOSINEE        CLOUDY    66  54  63 W12       29.75R
MARSHFIELD     PTSUNNY   69  52  54 W12G22    29.75R
STEVENS POINT  PTSUNNY   68  51  54 W12G17    29.75R
WAUPACA        PTSUNNY   73  51  45 W15G22    29.73R
WAUTOMA        CLOUDY    71  54  54 NW15G21   29.75
WISC RAPIDS    CLOUDY    69  53  56 NW10      29.77R
CAMP DOUGLAS   PTSUNNY   68  55  62 W13       29.77R
$$

WIZ011>013-019>022-031-037>040-048>050-240000-
NORTHEAST WISCONSIN

CITY           SKY/WX    TMP DP  RH WIND       PRES   REMARKS
ANTIGO         CLOUDY    65  50  57 NW13G21   29.73R
SHAWANO        CLOUDY    72  50  46 NW13      29.70R
OCONTO         CLOUDY    72  50  44 W8        29.66R
STURGEON BAY     N/A     74  53  48 W14         N/A
GREEN BAY      CLOUDY    73  56  54 W15       29.68R
MANITOWOC      PTSUNNY   74  51  44 NW17G24   29.68R
APPLETON       PTSUNNY   70  48  46 W16       29.70R
CLINTONVILLE   CLOUDY    72  48  43 W20       29.70R
OSHKOSH        CLOUDY    71  53  52 NW14      29.70R
$$

WIZ032>034-041-042-053>061-240000-
SOUTHWEST WISCONSIN

CITY           SKY/WX    TMP DP  RH WIND       PRES   REMARKS
LA CROSSE      MOSUNNY   77  54  44 W12       29.78F
SPARTA         MOSUNNY   71  54  56 W13G20    29.79S
VIROQUA        MOSUNNY   69  56  63 NW5       29.81S
BOSCOBEL       MOSUNNY   72  53  51 W9        29.80S
PRAIRIE DU CHI CLOUDY    71  53  52 W9        29.81S
PLATTEVILLE    CLOUDY    71  54  55 W12G17    29.81F
$$

WIZ056-057-062-063-064-067-068-240000-
SOUTH CENTRAL WISCONSIN

CITY           SKY/WX    TMP DP  RH WIND       PRES   REMARKS
REEDSBURG      CLOUDY    69  54  59 W10       29.77S
BARABOO/DELLS  CLOUDY    69  53  56 W8        29.77S
LONE ROCK      CLOUDY    71  54  54 NW13      29.78R
MINERAL POINT  CLOUDY    72  54  53 NW12G17   29.80S
MADISON        CLOUDY    71  54  54 NW13G25   29.75R
MIDDLETON      CLOUDY    73  56  54 NW12G18   29.77R
WATERTOWN      MOSUNNY   73  54  50 W13G24    29.73R
MONROE         PTSUNNY   72  52  49 W18G28    29.78R
JANESVILLE     PTSUNNY   79  52  38 NW20      29.73R
$$

WIZ051-052-058>065-066-070>072-240000-
SOUTHEAST WISCONSIN

CITY           SKY/WX    TMP DP  RH WIND       PRES   REMARKS
MILWAUKEE      PTSUNNY   80  50  34 W16       29.68S HX  80
WAUKESHA       PTSUNNY   73  50  43 W13G22    29.71S
MILWAUKEE/TIMM MOSUNNY   75  43  31 W13G26    29.69S
RACINE         CLOUDY    78  51  38 W10G18    29.70F
KENOSHA        PTSUNNY   76  54  46 W13       29.70S
FOND DU LAC    PTSUNNY   73  52  47 NW17G25   29.71R
SHEBOYGAN      MOSUNNY   73  54  51 NW14G24   29.68R
WEST BEND      MOSUNNY   73  50  43 W14G22    29.70R
JUNEAU         MOSUNNY   71  52  50 W12G21    29.74R
$$

LSZ147-162-240000-
LAKE SUPERIOR

STATION/POSITION TIME  TEMP    WIND        PRES    WAVE
                       AIR SEA DIR/SP/G            HT/PER
                 (UTC) (F)     (DEG/KT/KT) (MB)    (FT/S)
W MID LAKE BUOY  2250   47 39  250/  8/ 10 1004.8R   2/ 4
DEVILS ISLAND    2300   59     230/  9/ 10 1005.6S
SAXON HARBOR     2240   67     320/  4/  5 1005.8F
$$

LMZ867-665-643>646-240000-
LAKE MICHIGAN

STATION/POSITION TIME  TEMP    WIND        PRES    WAVE
                       AIR SEA DIR/SP/G            HT/PER
                 (UTC) (F)     (DEG/KT/KT) (MB)    (FT/S)
CHAMBERS ISLAND  2240   72     290/  7/ 12 1003.4R
S GREEN BAY BUOY 2300   71     280/ 12/ 16 1004.3
N MID LAKE BUOY  2250   64 57  340/ 12/ 12 1003.2R   1/ 3
NORTHPORT PIER   2240   73     300/  7/ 13 1003.0R
KEWAUNEE LAKESHO 2300   73     290/  8/ 12 1004.2
SHEBOYGAN LAKESH 2300   75     290/ 17/ 22 1004.3R
PORT WASHINGTON  2240   80     290/  7/ 16 1005.8R
ATWATER BUOY     2209   72 59  260/  8/ 12 1005.5R
MILWAUKEE LAKESH 2300   77     300/ 14/ 18   N/A
S MID LAKE BUOY  2250   66 63  210/  8/  8 1005.1F   0
KENOSHA   LAKESH 2300   79     270/ 11/ 14 1005.1
$$

TC  - TEMPERATURE IN CELSIUS
VSB - VISIBILITY IN STATUTE MILES
WCI - WIND CHILL INDEX
HX  - HEAT INDEX




USA.gov is the U.S. government's official web portal to all federal, state and local government web resources and services.